When you browse on this site, cookies collect data to enhance your experience and personalize the content and advertising you see.
Visit our Privacy Policy to learn more. By continuing to use the site, you agree to this use of cookies and data.
  • In Lithuania
  • List of Countries
  • For 7 days
  • Water Temperature
  • Satellite Maps
  • Weather Map
  • Weather Widgets
  • user-avatar
    Login

    Hourly Weather Wien

    Today, 19 July, Friday

    Time Temperature Precipitation Wind Pressure Humidity
    00:00 +21°C° 0 mm 1 mps 742 mmHg 66%
    01:00 +20°C° 0 mm 1 mps 742 mmHg 68%
    02:00 +20°C° 0 mm 1 mps 742 mmHg 69%
    03:00 +20°C° 0 mm 1 mps 742 mmHg 70%
    04:00 +19°C° 0 mm 1 mps 742 mmHg 71%
    05:00 +20°C° 0.1 mm 1 mps 743 mmHg 69%
    06:00 +21°C° 0.1 mm 1 mps 743 mmHg 66%
    07:00 +22°C° 0.1 mm 1 mps 743 mmHg 64%
    08:00 +24°C° 0 mm 1 mps 743 mmHg 58%
    09:00 +26°C° 0 mm 1 mps 743 mmHg 52%
    10:00 +28°C° 0 mm 2 mps 743 mmHg 46%
    11:00 +29°C° 0 mm 2 mps 743 mmHg 42%
    12:00 +30°C° 0 mm 2 mps 743 mmHg 38%
    13:00 +31°C° 0 mm 2 mps 743 mmHg 35%
    14:00 +31°C° 0 mm 2 mps 743 mmHg 34%
    15:00 +31°C° 0 mm 2 mps 743 mmHg 34%
    16:00 +31°C° 0 mm 2 mps 743 mmHg 34%
    17:00 +30°C° 0 mm 1 mps 743 mmHg 39%
    18:00 +28°C° 0 mm 1 mps 743 mmHg 44%
    19:00 +27°C° 0 mm 1 mps 743 mmHg 49%
    20:00 +26°C° 0 mm 1 mps 743 mmHg 52%
    21:00 +25°C° 0 mm 1 mps 743 mmHg 56%
    22:00 +24°C° 0 mm 1 mps 744 mmHg 60%
    23:00 +23°C° 0 mm 1 mps 744 mmHg 64%

    Tomorrow, 20 July, Saturday

    Time Temperature Precipitation Wind Pressure Humidity
    00:00 +22°C° 0 mm 1 mps 744 mmHg 67%
    01:00 +21°C° 0 mm 1 mps 744 mmHg 71%
    02:00 +21°C° 0 mm 1 mps 744 mmHg 73%
    03:00 +21°C° 0 mm 1 mps 744 mmHg 75%
    04:00 +20°C° 0 mm 1 mps 744 mmHg 77%
    05:00 +21°C° 0 mm 1 mps 744 mmHg 73%
    06:00 +23°C° 0 mm 1 mps 744 mmHg 68%
    07:00 +22°C° 0 mm 0 mps 744 mmHg 64%
    08:00 +26°C° 0 mm 1 mps 745 mmHg 58%
    09:00 +28°C° 0 mm 1 mps 745 mmHg 52%
    10:00 +30°C° 0 mm 1 mps 745 mmHg 46%
    11:00 +30°C° 0 mm 1 mps 744 mmHg 43%
    12:00 +31°C° 0 mm 2 mps 744 mmHg 40%
    13:00 +32°C° 0 mm 2 mps 744 mmHg 36%
    14:00 +34°C° 0 mm 2 mps 744 mmHg 36%
    15:00 +34°C° 0 mm 3 mps 744 mmHg 36%
    16:00 +34°C° 0 mm 3 mps 743 mmHg 35%
    17:00 +33°C° 0 mm 3 mps 743 mmHg 40%
    18:00 +31°C° 0 mm 3 mps 744 mmHg 45%
    19:00 +29°C° 0 mm 3 mps 744 mmHg 49%
    20:00 +28°C° 0 mm 2 mps 744 mmHg 52%
    21:00 +27°C° 0 mm 2 mps 744 mmHg 55%
    22:00 +26°C° 0 mm 2 mps 745 mmHg 58%
    23:00 +26°C° 0 mm 2 mps 745 mmHg 61%

    Day after tomorrow, 21 July, Sunday

    Time Temperature Precipitation Wind Pressure Humidity
    00:00 +25°C° 0 mm 1 mps 745 mmHg 63%
    01:00 +25°C° 0 mm 1 mps 744 mmHg 66%
    02:00 +24°C° 0 mm 1 mps 745 mmHg 67%
    03:00 +24°C° 0 mm 1 mps 745 mmHg 68%
    04:00 +23°C° 0 mm 1 mps 745 mmHg 69%
    05:00 +24°C° 0 mm 1 mps 745 mmHg 65%
    06:00 +25°C° 0 mm 1 mps 745 mmHg 61%
    07:00 +26°C° 0 mm 1 mps 745 mmHg 57%
    08:00 +28°C° 0 mm 1 mps 745 mmHg 51%
    09:00 +30°C° 0 mm 1 mps 746 mmHg 45%
    10:00 +32°C° 0 mm 1 mps 746 mmHg 39%
    11:00 +34°C° 0 mm 2 mps 746 mmHg 36%
    12:00 +35°C° 0 mm 2 mps 746 mmHg 34%
    13:00 +35°C° 0 mm 3 mps 746 mmHg 31%
    14:00 +35°C° 0 mm 3 mps 746 mmHg 34%
    15:00 +34°C° 0 mm 4 mps 746 mmHg 36%
    16:00 +34°C° 0 mm 4 mps 746 mmHg 38%
    17:00 +33°C° 0.1 mm 4 mps 746 mmHg 45%
    18:00 +30°C° 0.1 mm 4 mps 746 mmHg 52%
    19:00 +29°C° 0.1 mm 4 mps 747 mmHg 60%
    20:00 +27°C° 0 mm 4 mps 747 mmHg 63%
    21:00 +26°C° 0 mm 3 mps 747 mmHg 67%
    22:00 +25°C° 0 mm 3 mps 748 mmHg 70%
    23:00 +24°C° 0 mm 3 mps 748 mmHg 72%

    22 July, Monday

    Time Temperature Precipitation Wind Pressure Humidity
    00:00 +24°C° 0 mm 3 mps 748 mmHg 73%
    01:00 +22°C° 0 mm 3 mps 748 mmHg 75%
    02:00 +21°C° 0 mm 3 mps 748 mmHg 76%
    03:00 +21°C° 0 mm 2 mps 748 mmHg 77%
    04:00 +20°C° 0 mm 2 mps 748 mmHg 79%
    05:00 +21°C° 0 mm 2 mps 749 mmHg 74%
    06:00 +22°C° 0 mm 3 mps 749 mmHg 70%
    07:00 +24°C° 0 mm 3 mps 749 mmHg 66%
    08:00 +26°C° 0 mm 3 mps 749 mmHg 59%
    09:00 +27°C° 0 mm 3 mps 750 mmHg 52%
    10:00 +28°C° 0 mm 3 mps 750 mmHg 46%
    11:00 +29°C° 0 mm 3 mps 750 mmHg 43%
    12:00 +30°C° 0 mm 3 mps 749 mmHg 40%
    13:00 +31°C° 0 mm 3 mps 749 mmHg 37%
    14:00 +31°C° 0 mm 3 mps 749 mmHg 37%
    15:00 +31°C° 0 mm 3 mps 749 mmHg 37%
    16:00 +31°C° 0 mm 3 mps 749 mmHg 37%
    17:00 +30°C° 0 mm 3 mps 749 mmHg 42%
    18:00 +28°C° 0 mm 3 mps 749 mmHg 46%
    19:00 +27°C° 0 mm 2 mps 749 mmHg 51%
    20:00 +26°C° 0 mm 2 mps 749 mmHg 54%
    21:00 +25°C° 0 mm 2 mps 749 mmHg 58%
    22:00 +24°C° 0 mm 1 mps 750 mmHg 62%
    23:00 +23°C° 0 mm 1 mps 750 mmHg 63%

    23 July, Tuesday

    Time Temperature Precipitation Wind Pressure Humidity
    00:00 +23°C° 0 mm 1 mps 750 mmHg 65%
    01:00 +22°C° 0 mm 1 mps 749 mmHg 66%
    02:00 +22°C° 0 mm 1 mps 749 mmHg 68%
    03:00 +21°C° 0 mm 1 mps 749 mmHg 70%
    04:00 +21°C° 0 mm 1 mps 749 mmHg 73%
    05:00 +22°C° 0 mm 1 mps 749 mmHg 69%
    06:00 +23°C° 0 mm 1 mps 749 mmHg 65%
    07:00 +24°C° 0 mm 1 mps 749 mmHg 61%
    08:00 +25°C° 0 mm 2 mps 749 mmHg 55%
    09:00 +27°C° 0 mm 2 mps 749 mmHg 49%
    10:00 +29°C° 0 mm 2 mps 749 mmHg 43%
    11:00 +30°C° 0 mm 2 mps 749 mmHg 39%
    12:00 +30°C° 0 mm 2 mps 748 mmHg 35%
    13:00 +31°C° 0 mm 3 mps 748 mmHg 31%
    14:00 +33°C° 0 mm 3 mps 747 mmHg 31%
    15:00 +33°C° 0 mm 3 mps 747 mmHg 31%
    16:00 +33°C° 0 mm 3 mps 747 mmHg 32%
    17:00 +30°C° 0 mm 3 mps 747 mmHg 37%
    18:00 +29°C° 0 mm 2 mps 747 mmHg 42%
    19:00 +28°C° 0 mm 2 mps 747 mmHg 47%
    20:00 +27°C° 0 mm 2 mps 747 mmHg 52%
    21:00 +25°C° 0 mm 1 mps 747 mmHg 56%
    22:00 +24°C° 0 mm 1 mps 747 mmHg 61%
    23:00 +23°C° 0 mm 1 mps 747 mmHg 62%

    24 July, Wednesday

    Time Temperature Precipitation Wind Pressure Humidity
    00:00 +23°C° 0 mm 1 mps 747 mmHg 64%
    01:00 +22°C° 0 mm 1 mps 747 mmHg 66%
    02:00 +22°C° 0 mm 1 mps 747 mmHg 67%
    03:00 +21°C° 0 mm 1 mps 747 mmHg 69%
    04:00 +21°C° 0 mm 1 mps 746 mmHg 70%
    05:00 +22°C° 0 mm 1 mps 747 mmHg 66%
    06:00 +23°C° 0 mm 1 mps 747 mmHg 61%
    07:00 +25°C° 0 mm 1 mps 747 mmHg 57%
    08:00 +26°C° 0 mm 1 mps 747 mmHg 52%
    09:00 +28°C° 0 mm 1 mps 747 mmHg 46%
    10:00 +30°C° 0 mm 2 mps 747 mmHg 41%
    11:00 +31°C° 0 mm 2 mps 746 mmHg 38%
    12:00 +32°C° 0 mm 2 mps 746 mmHg 36%
    13:00 +34°C° 0 mm 2 mps 746 mmHg 34%
    14:00 +34°C° 0 mm 2 mps 746 mmHg 34%
    15:00 +34°C° 0 mm 3 mps 746 mmHg 35%
    16:00 +34°C° 0 mm 3 mps 745 mmHg 35%
    17:00 +33°C° 0 mm 3 mps 745 mmHg 40%
    18:00 +30°C° 0 mm 2 mps 745 mmHg 46%
    19:00 +29°C° 0 mm 2 mps 745 mmHg 51%
    20:00 +28°C° 0 mm 2 mps 746 mmHg 55%
    21:00 +27°C° 0 mm 1 mps 746 mmHg 58%
    22:00 +25°C° 0 mm 1 mps 746 mmHg 62%
    23:00 +25°C° 0 mm 1 mps 746 mmHg 64%
    Show more